[[{"header":{"parameterUnit":"m.s-1","parameterCategory":1,"la1":30.2992,"la2":30.254,"lo1":-89.0895,"lo2":-89.0443,"dy":0.0025,"dx":0.0025,"nx":19,"ny":19,"refTime":"2026-04-09T09:00:00:Z","depth":0,"parameterNumber":2,"parameterNumberName":"U-component_of_WINDS"},"data":[0,0,0,-6.5384,-6.5386,-6.5436,-6.5436,-6.5539,-6.5541,0,0,0,0,0,0,0,0,0,0,0,-6.5394,-6.5396,-6.5384,-6.5386,-6.5436,-6.5436,-6.5539,-6.5541,0,0,0,0,0,0,0,0,0,0,0,-6.5393,-6.5395,-6.5397,-6.5387,-6.5436,-6.5436,-6.5539,-6.5487,0,0,0,0,0,0,0,0,0,0,-6.5432,-6.5464,-6.5395,-6.5397,-6.5387,-6.5436,-6.5436,-6.5484,-6.549,-6.5534,0,-6.5579,0,-6.5562,-6.555,-6.5551,0,0,0,-6.5368,-6.5459,-6.5451,-6.5397,-6.5388,-6.5436,-6.5408,-6.5487,-6.5494,-6.5543,-6.558,-6.5583,-6.5564,-6.5551,-6.5552,-6.5866,-6.5869,0,0,-6.5365,-6.5416,-6.5446,-6.5457,-6.5452,-6.5407,-6.541,-6.5491,-6.5535,-6.5581,-6.5585,-6.5565,-6.5552,-6.5553,-6.5864,-6.5867,0,0,0,-6.537,-6.5415,-6.5403,-6.5454,-6.546,-6.5409,-6.5412,-6.5531,-6.5523,-6.5586,-6.5567,-6.5553,-6.5555,-6.5861,-6.5865,-6.6029,0,0,0,-6.5367,-6.5417,-6.5403,-6.5435,-6.5459,-6.5496,-6.5452,-6.5518,-6.5525,-6.5566,-6.5553,-6.5556,-6.5859,-6.5863,-6.6019,-6.6098,0,0,0,-6.5383,-6.5418,-6.5434,-6.5437,-6.546,-6.5494,-6.549,-6.5518,-6.5515,-6.5551,-6.5556,-6.5857,-6.5862,-6.601,-6.6083,-6.6196,0,0,0,-6.5413,-6.5579,-6.5438,-6.5615,-6.546,-6.5595,-6.5489,-6.5586,-6.5637,-6.5554,-6.5859,-6.5865,-6.6007,-6.6074,-6.6187,-6.63,-6.6353,0,0,-6.565,-6.5609,-6.5709,-6.5585,-6.5758,-6.5584,-6.578,-6.5778,-6.5735,-6.5825,-6.5832,-6.6022,-6.6082,-6.6194,-6.6627,-6.6669,0,0,0,-6.5802,-6.5875,-6.5909,-6.596,-6.5964,-6.5973,-6.5935,-6.5935,-6.6009,-6.5792,-6.6092,-6.6126,-6.619,-6.6242,-6.6277,-6.6329,-6.5891,-6.589,-6.589,-6.6208,-6.6146,-6.6308,-6.6252,-6.6303,-6.6264,-6.6299,-6.6292,-6.6212,-6.6285,-6.6311,-6.6582,-6.6644,-6.667,-6.6725,-6.6366,-6.6367,-6.6367,-6.6368,-6.655,-6.6643,-6.6536,-6.6655,-6.6588,-6.6687,-6.6657,-6.6598,-6.6681,-6.6556,-6.6609,-6.6478,-6.6718,-6.6763,-6.6379,-6.6377,-6.6376,-6.6375,-6.6374,-6.6809,-6.6843,-6.684,-6.6908,-6.6969,-6.6906,-6.6991,-6.6927,-6.6867,-6.6919,-6.694,-6.6937,-6.6927,-6.6934,-6.6935,-6.6936,-6.6937,-6.6938,-6.6938,-6.7078,-6.707,-6.715,-6.717,-6.7195,-6.722,-6.7184,-6.7207,-6.7216,-6.7162,-6.7162,-6.7077,-6.6754,-6.6674,-6.6952,-6.695,-6.6948,-6.6947,-6.6946,-6.7447,-6.7354,-6.7477,-6.7503,-6.7521,-6.7586,-6.7503,-6.7556,-6.7566,-6.7611,-6.7515,-6.7286,-6.7239,-6.7211,-6.7144,-6.7527,-6.7527,-6.7527,-6.7527,-6.7665,-6.7636,-6.7748,-6.7794,-6.7831,-6.777,-6.7913,-6.7888,-6.7847,-6.7849,-6.7785,-6.7691,-6.7665,-6.7633,-6.7596,-6.7532,-6.8006,-6.8006,-6.8007,-6.7888,-6.786,-6.7993,-6.7953,-6.7963,-6.7974,-6.8106,-6.8163,-6.8098,-6.8025,-6.785,-6.783,-6.7678,-6.7632,-6.7554,-6.7497,-6.7379,0,0]},{"header":{"parameterUnit":"m.s-1","parameterCategory":1,"la1":30.2992,"la2":30.254,"lo1":-89.0895,"lo2":-89.0443,"dy":0.0025,"dx":0.0025,"nx":19,"ny":19,"refTime":"2026-04-09T09:00:00:Z","depth":0,"parameterNumber":3,"parameterNumberName":"V-component_of_WINDS"},"data":[0,0,0,0.6608,0.6608,0.6587,0.6587,0.6556,0.6556,0,0,0,0,0,0,0,0,0,0,0,0.6611,0.6611,0.6608,0.6608,0.6587,0.6587,0.6556,0.6556,0,0,0,0,0,0,0,0,0,0,0,0.6611,0.6611,0.6611,0.6607,0.6587,0.6587,0.6556,0.6573,0,0,0,0,0,0,0,0,0,0,0.6594,0.6594,0.6611,0.661,0.6607,0.6587,0.6587,0.6574,0.6572,0.6563,0,0.6555,0,0.6555,0.6554,0.6554,0,0,0,0.6609,0.6595,0.6593,0.661,0.6607,0.6588,0.6597,0.6573,0.6571,0.6561,0.6555,0.6554,0.6555,0.6553,0.6553,0.6498,0.6498,0,0,0.661,0.6606,0.6594,0.6591,0.6595,0.6598,0.6596,0.6572,0.6565,0.6554,0.6553,0.6554,0.6553,0.6553,0.6498,0.6498,0,0,0,0.6612,0.6606,0.6604,0.6592,0.6589,0.6597,0.6596,0.6566,0.6566,0.6553,0.6554,0.6553,0.6553,0.6499,0.6498,0.6477,0,0,0,0.6613,0.6607,0.6605,0.6602,0.659,0.6577,0.659,0.6567,0.6565,0.6554,0.6553,0.6552,0.6499,0.6498,0.6479,0.6468,0,0,0,0.6613,0.6608,0.6604,0.6601,0.6593,0.6578,0.6576,0.6567,0.6565,0.6554,0.6552,0.6499,0.6498,0.648,0.647,0.6453,0,0,0,0.6612,0.6584,0.6603,0.6573,0.6593,0.6565,0.6577,0.6556,0.6543,0.6553,0.6499,0.6498,0.648,0.6471,0.6454,0.6437,0.643,0,0,0.6574,0.6579,0.6562,0.6579,0.6547,0.6569,0.6534,0.6526,0.6528,0.6508,0.6507,0.6478,0.647,0.6453,0.639,0.6384,0,0,0,0.6548,0.6536,0.6528,0.6517,0.6512,0.6506,0.6505,0.6502,0.6486,0.6517,0.6467,0.6463,0.6453,0.6445,0.644,0.6432,0.6494,0.6494,0.6495,0.6487,0.6493,0.6465,0.647,0.6459,0.6459,0.6451,0.6448,0.6456,0.6444,0.6438,0.6399,0.639,0.6386,0.6378,0.643,0.643,0.6429,0.6429,0.6432,0.6416,0.643,0.6408,0.6415,0.6397,0.6396,0.6403,0.6387,0.6404,0.6396,0.6413,0.638,0.6373,0.6428,0.6428,0.6428,0.6428,0.6429,0.6392,0.6386,0.6385,0.6371,0.6359,0.6365,0.6349,0.6356,0.6362,0.6354,0.6349,0.6349,0.635,0.6351,0.6351,0.6351,0.6351,0.6351,0.635,0.6352,0.6351,0.6338,0.6332,0.6326,0.632,0.6322,0.6317,0.6312,0.6319,0.6319,0.6329,0.6375,0.6387,0.6348,0.6349,0.6349,0.6349,0.6349,0.6294,0.6309,0.6288,0.6283,0.6277,0.6266,0.6276,0.6265,0.6262,0.6254,0.6267,0.63,0.6305,0.6309,0.6319,0.6265,0.6265,0.6265,0.6265,0.626,0.6265,0.6246,0.6238,0.623,0.6238,0.6215,0.6216,0.622,0.6218,0.6227,0.6241,0.6245,0.6248,0.6253,0.6262,0.6195,0.6195,0.6195,0.6225,0.623,0.6208,0.6214,0.621,0.6207,0.6186,0.6176,0.6183,0.6192,0.6218,0.6221,0.6243,0.6249,0.6258,0.6266,0.6283,0,0]}]]